Custer, SD

1:09 PM MDT on August 30, 2016 (GMT -0600)
Custer County

Weather History for KCUT - March, 2014

Change the Weather History Date:

Monday, March 24, 2014

  Actual Average Record
Temperature  
Mean Temperature 19 °F 33 °F  
Max Temperature 29 °F 43 °F 69 °F (1993)
Min Temperature 9 °F 23 °F -9 °F (1965)
Degree Days  
Heating Degree Days 46 32  
Month to date heating degree days 835 823  
Since 1 July heating degree days 6693 6658  
Cooling Degree Days 0 0  
Month to date cooling degree days 0 0  
Year to date cooling degree days 0 0  
Moisture  
Dew Point 8 °F    
Average Humidity 65    
Maximum Humidity 84    
Minimum Humidity 46    
Precipitation  
Precipitation 0.00 in 0.04 in 0.69 in (1937)
Month to date precipitation 0.86 0.69  
Year to date precipitation 2.19 1.55  
Sea Level Pressure  
Sea Level Pressure 30.29 in    
Wind  
Wind Speed 7 mph (WNW)    
Max Wind Speed 22 mph    
Max Gust Speed 30 mph    
Visibility 10 miles    
Events      
T = Trace of Precipitation, MM = Missing Value Source: NWS Daily Summary

Daily Weather History Graph

Daily Weather History Graph

Search for Another Location

Airport or City:

Trip Planner

Search our weather history database for the weather conditions in past years. The results will help you decide how hot, cold, wet, or windy it might be!

Date:

Astronomy

Mar. 24, 2014 Rise Set
Actual Time 6:50 AM MDT 7:11 PM MDT
Civil Twilight 6:21 AM MDT 7:40 PM MDT
Nautical Twilight 5:47 AM MDT 8:14 PM MDT
Astronomical Twilight 5:13 AM MDT 8:49 PM MDT
Moon 2:33 AM MDT (3/24) 12:29 PM MDT (3/24)
Length of Visible Light 13h 18m
Length of Day
12h 21m
Last Quarter, 42% of the Moon is Illuminated
Mar 24
Last Quarter
Mar 30
New
Apr 7
First Quarter
Apr 15
Full
Apr 22
Last Quarter

Hourly Weather History & Observations

Time (MDT) Temp. Windchill Dew Point Humidity Pressure Visibility Wind Dir Wind Speed Gust Speed Precip Events Conditions
12:53 AM 21.0 °F - 12.9 °F 71% 30.22 in 10.0 mi Calm Calm - N/A   Clear
1:53 AM 19.0 °F 13.9 °F 10.0 °F 68% 30.22 in 10.0 mi WNW 3.5 mph - N/A   Clear
2:53 AM 19.0 °F 12.3 °F 10.0 °F 68% 30.22 in 10.0 mi West 4.6 mph - N/A   Clear
3:53 AM 18.0 °F 11.1 °F 10.0 °F 71% 30.22 in 10.0 mi NW 4.6 mph - N/A   Clear
4:53 AM 12.9 °F - 8.1 °F 81% 30.26 in 10.0 mi Calm Calm - N/A   Clear
5:53 AM 14.0 °F - 7.0 °F 74% 30.26 in 10.0 mi Calm Calm - N/A   Clear
6:53 AM 16.0 °F 8.8 °F 5.0 °F 62% 30.29 in 10.0 mi West 4.6 mph - N/A   Clear
7:53 AM 18.0 °F 11.1 °F 6.1 °F 60% 30.30 in 10.0 mi West 4.6 mph - N/A   Clear
8:53 AM 19.9 °F - 8.1 °F 60% 30.31 in 10.0 mi Calm Calm - N/A   Clear
9:53 AM 24.1 °F 15.2 °F 10.0 °F 55% 30.30 in 10.0 mi WNW 8.1 mph - N/A   Partly Cloudy
10:53 AM 25.0 °F 16.3 °F 10.9 °F 55% 30.30 in 10.0 mi WNW 8.1 mph - N/A   Mostly Cloudy
11:53 AM 27.0 °F 14.7 °F 10.0 °F 49% 30.28 in 10.0 mi West 16.1 mph 21.9 mph N/A   Mostly Cloudy
12:53 PM 26.1 °F 16.2 °F 10.0 °F 51% 30.29 in 10.0 mi NW 10.4 mph 24.2 mph N/A   Mostly Cloudy
1:53 PM 26.1 °F 12.3 °F 10.9 °F 53% 30.28 in 10.0 mi West 19.6 mph 29.9 mph N/A   Overcast
2:53 PM 28.0 °F 18.6 °F 10.0 °F 47% 30.27 in 10.0 mi NW 10.4 mph - N/A   Mostly Cloudy
3:53 PM 26.1 °F 15.6 °F 10.9 °F 53% 30.29 in 10.0 mi NW 11.5 mph 24.2 mph N/A   Overcast
4:53 PM 27.0 °F 16.7 °F 9.0 °F 47% 30.31 in 10.0 mi NW 11.5 mph 20.7 mph N/A   Mostly Cloudy
5:53 PM 25.0 °F 14.2 °F 8.1 °F 49% 30.31 in 10.0 mi WNW 11.5 mph 20.7 mph N/A   Partly Cloudy
6:53 PM 21.9 °F 11.0 °F 9.0 °F 58% 30.33 in 10.0 mi West 10.4 mph - N/A   Mostly Cloudy
7:53 PM 19.9 °F 9.3 °F 9.0 °F 62% 30.34 in 10.0 mi WNW 9.2 mph - N/A   Mostly Cloudy
8:53 PM 18.0 °F 9.8 °F 6.1 °F 60% 30.35 in 10.0 mi WNW 5.8 mph - N/A   Clear
9:53 PM 17.1 °F 11.7 °F 3.9 °F 56% 30.35 in 10.0 mi Variable 3.5 mph - N/A   Clear
10:53 PM 15.1 °F 7.7 °F 3.9 °F 61% 30.36 in 10.0 mi NW 4.6 mph - N/A   Partly Cloudy
11:53 PM 12.9 °F - 3.0 °F 65% 30.37 in 10.0 mi Calm Calm - N/A   Clear